STARLINK-37063, 68079

Orbit data source: Space-Track

STARLINK-37063, 68079 is a payload satellite owned by SpaceX/Seattle (US) in LEO that was launched on Wed, 04 Mar 2026 UTC via an FALCON 9 launch vehicle from the Air Force Eastern Test Range (AFETR). Payload-class satellites include a variety of spacecraft equipped with specific instruments for various scientific and technological missions. These include communications satellites like Starlink; space stations such as the ISS; scientific satellites like the Hubble; Earth observation satellites from companies like Planet Labs, Umbra, and HawkEye 360; GPS; miniature CubeSats for education and research; and military/defense satellites.

Not visible in the next 10 days
Identifier
68079, 2026-042L
Orbit
LEO
Country
Flag of USUS
Related business
Manufacturer
SpaceX/Seattle
Mission
Operational spacecraft
Bus & Motor
STARLINK V2MO, Unknown motor
Mass
575 kg wet, ~530 kg dry
Launch date (UTC)
2026-03-04 (1 month ago)
Launch vehicle
FALCON 9
Launch site
Air Force Eastern Test Range (AFETR)
Object type
Payload
Rocket body
Debris
Shape & HBR
Unknown shape, 17.7 m
Radar Cross Section
RCS unknown

Expand to show TLE details & history
Last TLE update: 6 hours ago

TLE from 6 hours ago
0 STARLINK-37063
1 68079U 26042L   26102.28721737  .00173526  00000-0  11076-2 0  9993
2 68079  53.1586  26.6445 0001340 152.8406 207.2684 15.75351501  7392
Epoch: 2026-04-12T06:53Z
TLE epoch observation values (Epoch: 2026-04-12T06:53:35.580Z)
Latitude
-0.00009°
Longitude
82.75185°
Altitude
345.349 km
Speed
7.702 km/s
True Right ascension
01h 46m 34s
True Declination
0° 00' 00"
Sunlit
Object was in daylight at epoch
Visualization orbit readout
Latitude
Unknown
Longitude
Unknown
Altitude
Unknown
Speed
Unknown
Apparent Right ascension
Unknown
Apparent Declination
Unknown
Sunlit
N/A
Visualization observer readout
Local Sidereal Time
19:40:45
Azimuth
Unknown
Elevation
Unknown
Doppler factor
Unknown
Orbital elements
Apogee altitude
344.793 km
Perigee altitude
342.992 km
Semi-major axis
6,722.03 km
Eccentricity
0.00013
Inclination
53.1586°
RAAN
26.6445°
Arg. of periapsis
152.8406°
True anomaly
207.26137°
Mean anomaly
207.2684°
Eccentric anomaly
207.26488°
Mean motion
3.93815 °/min
Orbital period
91.41 mins
BSTAR
0.0011076
Loading maneuver chart data...
Computing Atmospheric mass density...
Loading historical data...
Loading historical data...
Loading historical data...
Loading historical data...
Loading historical data...
Loading historical data...
Loading historical data...

Documentation

Showing up to 5 results
|